TimeEDT,TemperatureF,Dew PointF,Humidity,Sea Level PressureIn,VisibilityMPH,Wind Direction,Wind SpeedMPH,Gust SpeedMPH,PrecipitationIn,Events,Conditions,WindDirDegrees,DateUTC
12:54 AM,57.9,55.9,93,30.17,10.0,Calm,Calm,-,N/A,,Clear,0,2013-04-18 04:54:00
1:54 AM,55.9,54.0,93,30.15,8.0,Calm,Calm,-,N/A,,Clear,0,2013-04-18 05:54:00
2:54 AM,55.9,55.0,97,30.13,6.0,Calm,Calm,-,N/A,,Clear,0,2013-04-18 06:54:00
3:52 AM,55.4,55.4,100,30.14,1.0,Calm,Calm,-,N/A,,Mist,0,2013-04-18 07:52:00
3:54 AM,55.0,55.0,100,30.14,1.0,Calm,Calm,-,N/A,,Mist,0,2013-04-18 07:54:00
4:06 AM,55.4,53.6,94,30.14,1.2,Calm,Calm,-,N/A,,Partly Cloudy,0,2013-04-18 08:06:00
4:12 AM,55.4,53.6,94,30.14,3.0,Calm,Calm,-,N/A,,Partly Cloudy,0,2013-04-18 08:12:00
4:27 AM,53.6,53.6,100,30.14,1.5,Calm,Calm,-,N/A,,Clear,0,2013-04-18 08:27:00
4:35 AM,53.6,53.6,100,30.15,0.8,Calm,Calm,-,N/A,,Clear,0,2013-04-18 08:35:00
4:40 AM,53.6,53.6,100,30.15,1.2,Calm,Calm,-,N/A,,Clear,0,2013-04-18 08:40:00
4:43 AM,53.6,53.6,100,30.15,2.0,Calm,Calm,-,N/A,,Clear,0,2013-04-18 08:43:00
4:51 AM,55.4,53.6,94,30.14,8.0,Calm,Calm,-,N/A,,Clear,0,2013-04-18 08:51:00
4:54 AM,55.0,54.0,96,30.14,7.0,Calm,Calm,-,N/A,,Clear,0,2013-04-18 08:54:00
5:15 AM,53.6,53.6,100,30.14,2.0,Calm,Calm,-,N/A,,Clear,0,2013-04-18 09:15:00
5:19 AM,53.6,53.6,100,30.15,1.5,Calm,Calm,-,N/A,,Clear,0,2013-04-18 09:19:00
5:23 AM,53.6,53.6,100,30.14,0.8,Calm,Calm,-,N/A,,Clear,0,2013-04-18 09:23:00
5:32 AM,53.6,53.6,100,30.15,0.2,Calm,Calm,-,N/A,Fog,Fog,0,2013-04-18 09:32:00
5:45 AM,53.6,53.6,100,30.15,1.8,Calm,Calm,-,N/A,,Partly Cloudy,0,2013-04-18 09:45:00
5:47 AM,53.6,53.6,100,30.15,4.0,Calm,Calm,-,N/A,,Partly Cloudy,0,2013-04-18 09:47:00
5:54 AM,54.0,53.1,97,30.15,6.0,Calm,Calm,-,N/A,,Partly Cloudy,0,2013-04-18 09:54:00
6:54 AM,55.0,55.0,100,30.16,4.0,Calm,Calm,-,N/A,,Clear,0,2013-04-18 10:54:00
6:58 AM,55.4,53.6,94,30.16,1.8,Calm,Calm,-,N/A,,Clear,0,2013-04-18 10:58:00
7:05 AM,55.4,55.4,100,30.17,1.2,Calm,Calm,-,N/A,,Clear,0,2013-04-18 11:05:00
7:14 AM,57.2,55.4,94,30.17,1.8,Calm,Calm,-,N/A,,Clear,0,2013-04-18 11:14:00
7:21 AM,57.2,57.2,100,30.17,3.0,Calm,Calm,-,N/A,,Clear,0,2013-04-18 11:21:00
7:54 AM,61.0,60.1,97,30.17,5.0,Calm,Calm,-,N/A,,Clear,0,2013-04-18 11:54:00
8:54 AM,68.0,63.0,84,30.18,10.0,Variable,5.8,-,N/A,,Scattered Clouds,0,2013-04-18 12:54:00
9:23 AM,69.8,62.6,78,30.19,10.0,SE,5.8,-,N/A,,Mostly Cloudy,140,2013-04-18 13:23:00
9:42 AM,71.6,62.6,73,30.19,10.0,ESE,6.9,-,N/A,,Mostly Cloudy,120,2013-04-18 13:42:00
9:54 AM,71.1,63.0,75,30.19,10.0,SE,6.9,-,N/A,,Mostly Cloudy,130,2013-04-18 13:54:00
10:29 AM,73.4,62.6,69,30.19,10.0,SE,8.1,-,N/A,,Overcast,140,2013-04-18 14:29:00
10:54 AM,73.0,63.0,71,30.18,5.0,SE,8.1,-,N/A,,Haze,130,2013-04-18 14:54:00
11:39 AM,75.2,64.4,69,30.18,10.0,SSE,5.8,-,N/A,,Scattered Clouds,150,2013-04-18 15:39:00
11:54 AM,75.0,64.0,69,30.17,10.0,SSE,5.8,-,N/A,,Scattered Clouds,160,2013-04-18 15:54:00
12:54 PM,77.0,63.0,62,30.16,10.0,South,8.1,-,N/A,,Mostly Cloudy,170,2013-04-18 16:54:00
1:54 PM,79.0,63.0,58,30.13,10.0,SE,6.9,-,N/A,,Mostly Cloudy,130,2013-04-18 17:54:00
2:54 PM,81.0,60.1,49,30.11,10.0,SSE,9.2,20.7,N/A,,Mostly Cloudy,160,2013-04-18 18:54:00
3:54 PM,79.0,60.1,52,30.09,10.0,South,8.1,17.3,N/A,,Partly Cloudy,180,2013-04-18 19:54:00
4:54 PM,79.0,59.0,50,30.08,10.0,SSE,6.9,18.4,N/A,,Clear,160,2013-04-18 20:54:00
5:54 PM,77.0,61.0,58,30.07,10.0,SE,12.7,-,N/A,,Scattered Clouds,140,2013-04-18 21:54:00
6:54 PM,75.0,61.0,62,30.06,10.0,SSE,10.4,-,N/A,,Clear,150,2013-04-18 22:54:00
7:54 PM,72.0,63.0,73,30.06,10.0,SSE,10.4,-,N/A,,Scattered Clouds,150,2013-04-18 23:54:00
8:54 PM,71.1,64.0,78,30.07,10.0,SSE,8.1,-,N/A,,Overcast,150,2013-04-19 00:54:00
9:54 PM,66.9,64.0,90,30.08,10.0,SE,9.2,18.4,N/A,,Overcast,140,2013-04-19 01:54:00
10:54 PM,66.0,64.0,93,30.07,10.0,SE,6.9,-,N/A,,Mostly Cloudy,130,2013-04-19 02:54:00
11:54 PM,64.9,64.0,97,30.06,10.0,SSE,3.5,-,N/A,,Mostly Cloudy,150,2013-04-19 03:54:00